Regional Weather Roundup
Issued by NWS New Orleans/Baton Rouge, LA

Home | Current Version | Previous Version | Graphics & Text | Print | Product List | Glossary On
Versions: 1 2 3 4 5 6 7 8 9 10 11 12 13 14 15 16 17 18 19 20 21 22 23 24 25 26 27 28 29 30 31 32 33 34 35 36 37 38 39 40 41 42 43 44 45 46 47 48 49 50
310
ASUS44 KLIX 300110
RWRLIX
NEW ORLEANS REGIONAL WEATHER ROUNDUP
NATIONAL WEATHER SERVICE NEW ORLEANS LA
700 PM CST THU JAN 29 2015

NOTE: "FAIR" INDICATES FEW OR NO CLOUDS BELOW 12,000 FEET WITH NO
      SIGNIFICANT WEATHER AND/OR OBSTRUCTIONS TO VISIBILITY.
      SKY/WX - SKY CONDITION AND SIGNIFICANT WEATHER.
      TMP - AIR TEMPERATURE.     DP    - DEWPOINT TEMPERATURE.
      RH  - RELATIVE HUMIDITY.   PRES  - PRESSURE.
      HI  - HEAT INDEX.          WCI   - WIND CHILL INDEX.

*  THESE STATIONS ARE NOT NWS OR FAA STATIONS AND ARE NOT UNDER
   NWS QUALITY CONTROL.

LAZ038-040-048-061>063-065>067-069-300200-
SOUTHEAST LOUISIANA

CITY           SKY/WX    TMP DP  RH WIND       PRES   REMARKS
N.O. AUDUBON     N/A     64  58  79 MISG        N/A
N.O. INTL ARPT PTCLDY    67  55  65 SW12      30.20R
N.O. LAKEFRONT PTCLDY    68  55  63 SW14      30.20R
N.O. DOWNTOWN* NOT AVBL
SLIDELL        PTCLDY    59  55  87 CALM      30.19R
BATON ROUGE    MOCLDY    67  50  54 W5        30.20R
BOOTHVILLE     CLEAR     61  58  90 S6        30.23R
BELLE CHASSE   MOCLDY    62  55  77 SW7       30.20R
BOGALUSA*        N/A     62  54  74 SW6       30.19R
GALLIANO*      CLEAR     64  60  87 S6        30.23R
NEW ROADS*       N/A     64  54  68 W3        30.20S
GONZALES*        N/A     67  57  71 SW5       30.21R
HAMMOND*       MOCLDY    68  52  56 CALM      30.21R
HOUMA*         PTCLDY    64  59  85 SW6       30.22R
PORT FOURCHON* CLEAR     66  61  82 SW6       30.26R

$$

MSZ070-080>082-300200-
SOUTHERN MISSISSIPPI

CITY           SKY/WX    TMP DP  RH WIND       PRES   REMARKS
MCCOMB         PTCLDY    66  49  54 NW6       30.19R
GULFPORT       CLEAR     61  55  81 S6        30.19R
BILOXI         CLEAR     59  56  89 SW10      30.19R
PASCAGOULA     CLEAR     62  54  74 SW6       30.20R
STENNIS ARPT*  CLEAR     59  54  82 CALM      30.19R

$$

COASTAL OBSERVATIONS
LAKE AND NEARSHORE STATIONS

STATION/POSITION TIME  TEMP    WIND        PRES    WAVE
                       AIR SEA DIR/SP/G            HT/PER
                 (UTC) (F)     (DEG/KT/KT) (MB)    (FT/S)
PASCAGOULA       0100   62     200/ 10/ 12 1022.0
WAVELAND YACHT   0100   62     210/  6/  9 1021.6
GRAND ISLE       0100   65 63  220/  5/  6 1023.9
SOUTHWEST PASS   0100   63 48  190/  8/  9 1023.9
NEW CANAL        0100   69 58  230/  6/  8 1022.9
SHELL BEACH      0100   64 57  200/ 10/ 14 1022.4

OFFSHORE STATIONS

STATION/POSITION TIME  TEMP    WIND        PRES    WAVE
                       AIR SEA DIR/SP/G            HT/PER
                 (UTC) (F)     (DEG/KT/KT) (MB)    (FT/S)
64 S DAUPHIN ISL 0041   68 69  210/ 10/ 12 1023.7    2/ 5

$$




USA.gov is the U.S. government's official web portal to all federal, state and local government web resources and services.